When you browse on this site, cookies collect data to enhance your experience and personalize the content and advertising you see.
Visit our Privacy Policy to learn more. By continuing to use the site, you agree to this use of cookies and data.
  • In Romania
  • List of Countries
  • For 7 days
  • Water Temperature
  • Satellite Maps
  • Weather Map
  • Weather Widgets
  • user-avatar
    Login

    Hourly Weather Kaposvar

    Today, 19 March, Tuesday

    Time Temperature Precipitation Wind Pressure Humidity
    00:00 +5°C° 0 mm 3 mps 752 mmHg 62%
    01:00 +5°C° 0 mm 3 mps 752 mmHg 62%
    02:00 +4°C° 0 mm 3 mps 752 mmHg 64%
    03:00 +4°C° 0 mm 3 mps 752 mmHg 67%
    04:00 +3°C° 0 mm 3 mps 752 mmHg 69%
    05:00 +4°C° 0 mm 3 mps 752 mmHg 68%
    06:00 +4°C° 0 mm 3 mps 752 mmHg 68%
    07:00 +4°C° 0 mm 3 mps 753 mmHg 67%
    08:00 +5°C° 0 mm 4 mps 753 mmHg 63%
    09:00 +6°C° 0 mm 4 mps 753 mmHg 59%
    10:00 +6°C° 0 mm 5 mps 754 mmHg 55%
    11:00 +7°C° 0 mm 5 mps 754 mmHg 50%
    12:00 +8°C° 0 mm 5 mps 754 mmHg 45%
    13:00 +9°C° 0 mm 5 mps 754 mmHg 40%
    14:00 +9°C° 0 mm 5 mps 754 mmHg 40%
    15:00 +9°C° 0 mm 5 mps 754 mmHg 40%
    16:00 +9°C° 0 mm 5 mps 754 mmHg 40%
    17:00 +8°C° 0 mm 4 mps 754 mmHg 43%
    18:00 +9°C° 0 mm 3 mps 754 mmHg 47%
    19:00 +8°C° 0 mm 2 mps 755 mmHg 51%
    20:00 +8°C° 0 mm 2 mps 755 mmHg 53%
    21:00 +7°C° 0 mm 2 mps 756 mmHg 55%
    22:00 +7°C° 0 mm 2 mps 756 mmHg 58%
    23:00 +6°C° 0 mm 2 mps 757 mmHg 57%

    Tomorrow, 20 March, Wednesday

    Time Temperature Precipitation Wind Pressure Humidity
    00:00 +5°C° 0 mm 3 mps 757 mmHg 57%
    01:00 +4°C° 0 mm 3 mps 757 mmHg 57%
    02:00 +4°C° 0 mm 3 mps 757 mmHg 59%
    03:00 +3°C° 0 mm 3 mps 758 mmHg 61%
    04:00 +3°C° 0 mm 3 mps 758 mmHg 62%
    05:00 +3°C° 0 mm 3 mps 758 mmHg 64%
    06:00 +3°C° 0 mm 3 mps 759 mmHg 65%
    07:00 +2°C° 0 mm 3 mps 759 mmHg 67%
    08:00 +4°C° 0 mm 3 mps 759 mmHg 59%
    09:00 +7°C° 0 mm 3 mps 760 mmHg 51%
    10:00 +9°C° 0 mm 3 mps 760 mmHg 44%
    11:00 +10°C° 0 mm 3 mps 760 mmHg 42%
    12:00 +11°C° 0 mm 3 mps 760 mmHg 39%
    13:00 +12°C° 0 mm 3 mps 760 mmHg 37%
    14:00 +12°C° 0 mm 3 mps 760 mmHg 37%
    15:00 +12°C° 0 mm 3 mps 760 mmHg 36%
    16:00 +12°C° 0 mm 3 mps 759 mmHg 35%
    17:00 +10°C° 0 mm 3 mps 760 mmHg 39%
    18:00 +9°C° 0 mm 3 mps 760 mmHg 42%
    19:00 +8°C° 0 mm 2 mps 760 mmHg 46%
    20:00 +7°C° 0 mm 2 mps 761 mmHg 48%
    21:00 +6°C° 0 mm 2 mps 761 mmHg 50%
    22:00 +6°C° 0 mm 2 mps 761 mmHg 53%
    23:00 +5°C° 0 mm 2 mps 761 mmHg 56%

    Day after tomorrow, 21 March, Thursday

    Time Temperature Precipitation Wind Pressure Humidity
    00:00 +5°C° 0 mm 2 mps 761 mmHg 59%
    01:00 +5°C° 0 mm 2 mps 761 mmHg 61%
    02:00 +4°C° 0 mm 2 mps 761 mmHg 64%
    03:00 +4°C° 0 mm 2 mps 761 mmHg 66%
    04:00 +3°C° 0 mm 2 mps 761 mmHg 69%
    05:00 +5°C° 0 mm 1 mps 761 mmHg 68%
    06:00 +5°C° 0 mm 1 mps 761 mmHg 68%
    07:00 +5°C° 0 mm 1 mps 762 mmHg 68%
    08:00 +7°C° 0 mm 1 mps 762 mmHg 60%
    09:00 +9°C° 0 mm 1 mps 762 mmHg 51%
    10:00 +12°C° 0 mm 1 mps 762 mmHg 43%
    11:00 +12°C° 0 mm 1 mps 762 mmHg 39%
    12:00 +13°C° 0 mm 1 mps 761 mmHg 36%
    13:00 +14°C° 0 mm 1 mps 761 mmHg 32%
    14:00 +14°C° 0 mm 1 mps 761 mmHg 32%
    15:00 +15°C° 0 mm 1 mps 760 mmHg 31%
    16:00 +15°C° 0 mm 1 mps 760 mmHg 31%
    17:00 +13°C° 0 mm 1 mps 760 mmHg 35%
    18:00 +12°C° 0 mm 1 mps 760 mmHg 39%
    19:00 +11°C° 0 mm 1 mps 760 mmHg 43%
    20:00 +10°C° 0 mm 1 mps 760 mmHg 46%
    21:00 +9°C° 0 mm 1 mps 760 mmHg 48%
    22:00 +8°C° 0 mm 0 mps 760 mmHg 50%
    23:00 +7°C° 0 mm 0 mps 760 mmHg 51%

    22 March, Friday

    Time Temperature Precipitation Wind Pressure Humidity
    00:00 +7°C° 0 mm 0 mps 760 mmHg 53%
    01:00 +7°C° 0 mm 0 mps 760 mmHg 54%
    02:00 +6°C° 0 mm 0 mps 760 mmHg 55%
    03:00 +6°C° 0 mm 0 mps 759 mmHg 56%
    04:00 +6°C° 0 mm 0 mps 759 mmHg 57%
    05:00 +6°C° 0 mm 0 mps 759 mmHg 57%
    06:00 +6°C° 0 mm 0 mps 759 mmHg 57%
    07:00 +7°C° 0 mm 0 mps 759 mmHg 56%
    08:00 +9°C° 0 mm 0 mps 759 mmHg 50%
    09:00 +11°C° 0 mm 0 mps 759 mmHg 44%
    10:00 +13°C° 0 mm 0 mps 759 mmHg 37%
    11:00 +14°C° 0 mm 0 mps 759 mmHg 36%
    12:00 +16°C° 0 mm 1 mps 759 mmHg 34%
    13:00 +19°C° 0 mm 1 mps 758 mmHg 32%
    14:00 +19°C° 0 mm 1 mps 758 mmHg 33%
    15:00 +19°C° 0 mm 1 mps 757 mmHg 33%
    16:00 +19°C° 0 mm 1 mps 757 mmHg 34%
    17:00 +16°C° 0 mm 1 mps 757 mmHg 38%
    18:00 +14°C° 0 mm 0 mps 757 mmHg 42%
    19:00 +12°C° 0 mm 0 mps 757 mmHg 47%
    20:00 +12°C° 0 mm 0 mps 757 mmHg 48%
    21:00 +11°C° 0 mm 0 mps 757 mmHg 50%
    22:00 +10°C° 0 mm 0 mps 757 mmHg 52%
    23:00 +10°C° 0 mm 0 mps 757 mmHg 53%

    23 March, Saturday

    Time Temperature Precipitation Wind Pressure Humidity
    00:00 +10°C° 0 mm 0 mps 757 mmHg 54%
    01:00 +9°C° 0 mm 0 mps 757 mmHg 55%
    02:00 +9°C° 0 mm 0 mps 757 mmHg 56%
    03:00 +9°C° 0 mm 0 mps 757 mmHg 58%
    04:00 +8°C° 0 mm 0 mps 757 mmHg 59%
    05:00 +9°C° 0 mm 0 mps 757 mmHg 59%
    06:00 +9°C° 0 mm 0 mps 757 mmHg 59%
    07:00 +9°C° 0 mm 0 mps 757 mmHg 59%
    08:00 +12°C° 0 mm 0 mps 757 mmHg 53%
    09:00 +14°C° 0 mm 0 mps 757 mmHg 47%
    10:00 +16°C° 0 mm 0 mps 757 mmHg 41%
    11:00 +17°C° 0 mm 0 mps 757 mmHg 39%
    12:00 +20°C° 0 mm 1 mps 756 mmHg 37%
    13:00 +21°C° 0 mm 1 mps 756 mmHg 35%
    14:00 +21°C° 0 mm 1 mps 756 mmHg 35%
    15:00 +21°C° 0 mm 1 mps 755 mmHg 35%
    16:00 +21°C° 0 mm 1 mps 755 mmHg 34%
    17:00 +19°C° 0 mm 1 mps 755 mmHg 39%
    18:00 +18°C° 0 mm 1 mps 755 mmHg 43%
    19:00 +15°C° 0 mm 1 mps 755 mmHg 47%
    20:00 +14°C° 0 mm 1 mps 755 mmHg 50%
    21:00 +14°C° 0 mm 1 mps 755 mmHg 52%
    22:00 +13°C° 0 mm 1 mps 755 mmHg 54%
    23:00 +13°C° 0 mm 1 mps 754 mmHg 56%

    24 March, Sunday

    Time Temperature Precipitation Wind Pressure Humidity
    00:00 +12°C° 0 mm 1 mps 754 mmHg 58%
    01:00 +12°C° 0 mm 1 mps 754 mmHg 61%
    02:00 +11°C° 0 mm 1 mps 754 mmHg 63%
    03:00 +11°C° 0 mm 1 mps 753 mmHg 65%
    04:00 +10°C° 0 mm 1 mps 753 mmHg 68%
    05:00 +11°C° 0 mm 1 mps 753 mmHg 68%
    06:00 +11°C° 0 mm 1 mps 753 mmHg 68%
    07:00 +11°C° 0 mm 1 mps 753 mmHg 67%
    08:00 +13°C° 0 mm 2 mps 753 mmHg 60%
    09:00 +15°C° 0 mm 2 mps 753 mmHg 52%
    10:00 +17°C° 0 mm 2 mps 753 mmHg 44%
    11:00 +18°C° 0 mm 2 mps 752 mmHg 40%
    12:00 +20°C° 0 mm 2 mps 752 mmHg 37%
    13:00 +21°C° 0 mm 3 mps 752 mmHg 33%
    14:00 +21°C° 0 mm 2 mps 751 mmHg 33%
    15:00 +21°C° 0 mm 2 mps 751 mmHg 33%
    16:00 +21°C° 0 mm 2 mps 750 mmHg 33%
    17:00 +19°C° 0 mm 2 mps 750 mmHg 38%
    18:00 +18°C° 0 mm 1 mps 750 mmHg 43%
    19:00 +16°C° 0 mm 1 mps 750 mmHg 48%
    20:00 +15°C° 0 mm 1 mps 750 mmHg 50%
    21:00 +15°C° 0 mm 1 mps 750 mmHg 51%
    22:00 +14°C° 0 mm 1 mps 750 mmHg 53%
    23:00 +14°C° 0 mm 1 mps 750 mmHg 54%
    Show more